TimeCST,TemperatureF,Dew PointF,Humidity,Sea Level PressureIn,VisibilityMPH,Wind Direction,Wind SpeedMPH,Gust SpeedMPH,PrecipitationIn,Events,Conditions,WindDirDegrees,DateUTC
12:53 AM,34.0,27.0,75,30.32,10.0,WNW,3.5,-,N/A,,Clear,300,2013-11-08 06:53:00
1:53 AM,33.1,26.1,75,30.32,10.0,WSW,3.5,-,N/A,,Clear,240,2013-11-08 07:53:00
2:53 AM,30.0,26.1,85,30.32,10.0,SW,4.6,-,N/A,,Clear,220,2013-11-08 08:53:00
3:53 AM,28.9,25.0,85,30.32,10.0,Calm,Calm,-,N/A,,Clear,0,2013-11-08 09:53:00
4:53 AM,30.0,26.1,85,30.33,10.0,SW,3.5,-,N/A,,Clear,230,2013-11-08 10:53:00
5:53 AM,27.0,24.1,89,30.33,10.0,Calm,Calm,-,N/A,,Clear,0,2013-11-08 11:53:00
6:53 AM,27.0,26.1,96,30.32,10.0,Calm,Calm,-,N/A,,Clear,0,2013-11-08 12:53:00
7:53 AM,32.0,30.0,92,30.32,10.0,South,3.5,-,N/A,,Clear,170,2013-11-08 13:53:00
8:53 AM,37.0,30.9,79,30.32,10.0,South,4.6,-,N/A,,Clear,180,2013-11-08 14:53:00
9:53 AM,39.9,30.0,68,30.29,10.0,SSE,6.9,-,N/A,,Clear,150,2013-11-08 15:53:00
10:53 AM,43.0,28.0,56,30.27,10.0,South,15.0,-,N/A,,Clear,170,2013-11-08 16:53:00
11:53 AM,45.0,28.0,52,30.21,10.0,SSE,11.5,-,N/A,,Clear,160,2013-11-08 17:53:00
12:53 PM,46.9,28.9,50,30.17,10.0,South,15.0,20.7,N/A,,Clear,180,2013-11-08 18:53:00
1:53 PM,46.9,30.0,52,30.12,10.0,SSE,11.5,21.9,N/A,,Clear,160,2013-11-08 19:53:00
2:53 PM,48.9,28.9,46,30.07,10.0,SSE,13.8,20.7,N/A,,Clear,160,2013-11-08 20:53:00
3:53 PM,48.9,30.9,50,30.01,10.0,SSE,18.4,24.2,N/A,,Clear,150,2013-11-08 21:53:00
4:53 PM,50.0,32.0,50,29.99,10.0,SSE,16.1,23.0,N/A,,Clear,150,2013-11-08 22:53:00
5:53 PM,50.0,30.0,46,29.96,10.0,South,16.1,31.1,N/A,,Clear,170,2013-11-08 23:53:00
6:53 PM,50.0,30.0,46,29.99,10.0,South,15.0,21.9,N/A,,Clear,190,2013-11-09 00:53:00
7:53 PM,50.0,30.9,48,29.95,10.0,South,17.3,34.5,N/A,,Clear,180,2013-11-09 01:53:00
8:53 PM,48.9,30.9,50,29.96,10.0,South,13.8,-,N/A,,Clear,180,2013-11-09 02:53:00
9:53 PM,48.9,32.0,52,29.94,10.0,South,15.0,-,N/A,,Clear,190,2013-11-09 03:53:00
10:53 PM,48.0,33.1,56,29.93,10.0,SSW,15.0,-,N/A,,Clear,200,2013-11-09 04:53:00
11:53 PM,48.9,35.1,59,29.92,10.0,SSW,17.3,28.8,N/A,,Clear,200,2013-11-09 05:53:00